TimeCST,TemperatureF,Dew PointF,Humidity,Sea Level PressureIn,VisibilityMPH,Wind Direction,Wind SpeedMPH,Gust SpeedMPH,PrecipitationIn,Events,Conditions,WindDirDegrees,DateUTC
12:15 AM,44.6,28.4,53,30.38,10.0,East,5.8,-,N/A,,Clear,90,2013-01-10 06:15:00
12:35 AM,44.6,28.4,53,30.37,10.0,East,6.9,-,N/A,,Clear,90,2013-01-10 06:35:00
12:55 AM,44.6,28.4,53,30.37,10.0,East,6.9,-,N/A,,Clear,90,2013-01-10 06:55:00
1:15 AM,44.6,28.4,53,30.36,10.0,East,8.1,-,N/A,,Scattered Clouds,100,2013-01-10 07:15:00
1:35 AM,46.4,28.4,50,30.36,10.0,East,8.1,-,N/A,,Overcast,100,2013-01-10 07:35:00
1:55 AM,46.4,30.2,53,30.35,10.0,East,11.5,-,N/A,,Overcast,100,2013-01-10 07:55:00
2:15 AM,46.4,30.2,53,30.34,10.0,East,10.4,-,N/A,,Overcast,100,2013-01-10 08:15:00
2:35 AM,46.4,30.2,53,30.34,10.0,East,8.1,-,N/A,,Overcast,100,2013-01-10 08:35:00
2:55 AM,46.4,30.2,53,30.34,10.0,East,9.2,17.3,N/A,,Overcast,100,2013-01-10 08:55:00
3:15 AM,44.6,30.2,57,30.33,10.0,East,9.2,-,N/A,,Overcast,100,2013-01-10 09:15:00
3:35 AM,44.6,30.2,57,30.31,10.0,East,10.4,-,N/A,,Mostly Cloudy,90,2013-01-10 09:35:00
3:55 AM,42.8,32.0,66,30.29,10.0,East,11.5,-,N/A,,Overcast,90,2013-01-10 09:55:00
4:15 AM,42.8,32.0,66,30.27,10.0,East,9.2,-,0.01,,Overcast,100,2013-01-10 10:15:00
4:35 AM,41.0,33.8,76,30.27,9.0,East,11.5,16.1,0.02,,Overcast,100,2013-01-10 10:35:00
4:55 AM,41.0,35.6,81,30.26,8.0,East,6.9,-,0.05,,Overcast,100,2013-01-10 10:55:00
5:15 AM,39.2,35.6,87,30.25,6.0,East,11.5,-,0.05,,Overcast,100,2013-01-10 11:15:00
5:35 AM,39.2,35.6,87,30.24,5.0,East,8.1,-,0.08,,Overcast,90,2013-01-10 11:35:00
5:55 AM,39.2,35.6,87,30.24,3.0,East,9.2,-,0.11,,Overcast,100,2013-01-10 11:55:00
6:35 AM,39.2,35.6,87,30.24,10.0,East,6.9,-,0.02,,Overcast,100,2013-01-10 12:35:00
6:55 AM,39.2,35.6,87,30.21,10.0,East,8.1,-,0.02,,Overcast,90,2013-01-10 12:55:00
7:15 AM,39.2,35.6,87,30.22,9.0,East,6.9,-,N/A,,Overcast,100,2013-01-10 13:15:00
7:55 AM,39.2,35.6,87,30.21,10.0,East,9.2,-,N/A,,Overcast,100,2013-01-10 13:55:00
8:35 AM,39.2,37.4,93,30.19,10.0,ESE,6.9,-,N/A,,Overcast,110,2013-01-10 14:35:00
8:55 AM,41.0,37.4,87,30.18,10.0,East,6.9,-,N/A,,Overcast,100,2013-01-10 14:55:00
9:15 AM,41.0,37.4,87,30.17,9.0,ESE,8.1,-,N/A,,Overcast,110,2013-01-10 15:15:00
9:35 AM,41.0,37.4,87,30.15,8.0,East,8.1,-,N/A,,Overcast,100,2013-01-10 15:35:00
9:55 AM,42.8,37.4,81,30.15,7.0,ESE,8.1,-,N/A,,Overcast,110,2013-01-10 15:55:00
10:15 AM,42.8,39.2,87,30.12,7.0,East,10.4,-,N/A,,Overcast,100,2013-01-10 16:15:00
10:35 AM,42.8,39.2,87,30.12,7.0,ESE,6.9,-,N/A,,Overcast,120,2013-01-10 16:35:00
10:55 AM,44.6,39.2,81,30.08,7.0,East,8.1,-,N/A,,Overcast,100,2013-01-10 16:55:00
11:15 AM,44.6,41.0,87,30.09,8.0,SE,6.9,-,N/A,,Overcast,140,2013-01-10 17:15:00
11:35 AM,44.6,42.8,93,30.07,7.0,ESE,5.8,-,N/A,,Overcast,120,2013-01-10 17:35:00
11:55 AM,44.6,42.8,93,30.05,4.0,ESE,6.9,-,N/A,,Overcast,120,2013-01-10 17:55:00
12:15 PM,46.4,42.8,87,30.01,3.0,ESE,6.9,-,0.01,,Overcast,110,2013-01-10 18:15:00
12:35 PM,46.4,44.6,93,29.99,8.0,ESE,8.1,-,0.01,,Overcast,120,2013-01-10 18:35:00
12:55 PM,48.2,46.4,93,29.99,10.0,SE,9.2,-,0.01,,Overcast,130,2013-01-10 18:55:00
1:15 PM,50.0,46.4,87,29.97,10.0,ESE,8.1,-,N/A,,Overcast,120,2013-01-10 19:15:00
1:35 PM,51.8,48.2,88,29.96,10.0,ESE,8.1,-,N/A,,Overcast,120,2013-01-10 19:35:00
1:55 PM,51.8,48.2,88,29.95,10.0,SE,6.9,-,N/A,,Overcast,130,2013-01-10 19:55:00
2:15 PM,51.8,48.2,88,29.94,10.0,SE,6.9,-,N/A,,Overcast,130,2013-01-10 20:15:00
2:35 PM,53.6,50.0,88,29.93,10.0,SE,5.8,-,N/A,,Overcast,130,2013-01-10 20:35:00
2:55 PM,53.6,48.2,82,29.93,10.0,SE,8.1,-,N/A,,Overcast,140,2013-01-10 20:55:00
3:15 PM,53.6,48.2,82,29.92,10.0,ESE,8.1,-,N/A,,Overcast,120,2013-01-10 21:15:00
3:35 PM,53.6,48.2,82,29.93,10.0,SE,9.2,-,N/A,,Overcast,140,2013-01-10 21:35:00
3:55 PM,53.6,48.2,82,29.93,10.0,SSE,8.1,-,N/A,,Overcast,150,2013-01-10 21:55:00
4:15 PM,53.6,48.2,82,29.93,5.0,SE,9.2,-,N/A,,Overcast,130,2013-01-10 22:15:00
4:35 PM,51.8,48.2,88,29.93,10.0,SE,8.1,-,N/A,,Overcast,140,2013-01-10 22:35:00
4:55 PM,51.8,48.2,88,29.92,10.0,ESE,6.9,-,N/A,,Mostly Cloudy,120,2013-01-10 22:55:00
5:15 PM,51.8,48.2,88,29.91,10.0,ESE,4.6,-,N/A,,Overcast,120,2013-01-10 23:15:00
5:35 PM,51.8,48.2,88,29.90,10.0,ESE,5.8,-,N/A,,Overcast,110,2013-01-10 23:35:00
5:55 PM,51.8,48.2,88,29.89,10.0,East,5.8,-,N/A,,Overcast,100,2013-01-10 23:55:00
6:15 PM,51.8,48.2,88,29.88,8.0,ESE,8.1,-,N/A,,Overcast,110,2013-01-11 00:15:00
6:35 PM,51.8,48.2,88,29.87,10.0,ESE,4.6,-,N/A,,Overcast,110,2013-01-11 00:35:00
6:55 PM,51.8,48.2,88,29.86,10.0,East,5.8,-,N/A,,Overcast,100,2013-01-11 00:55:00
7:15 PM,51.8,48.2,88,29.85,10.0,East,6.9,-,N/A,,Overcast,100,2013-01-11 01:15:00
7:35 PM,51.8,48.2,88,29.84,10.0,East,4.6,-,N/A,,Overcast,100,2013-01-11 01:35:00
7:55 PM,51.8,48.2,88,29.84,10.0,East,3.5,-,N/A,,Overcast,90,2013-01-11 01:55:00
8:15 PM,51.8,48.2,88,29.88,5.0,West,8.1,17.3,0.03,,Overcast,270,2013-01-11 02:15:00
8:55 PM,50.0,46.4,87,29.86,9.0,SSE,3.5,-,0.03,,Mostly Cloudy,160,2013-01-11 02:55:00
9:15 PM,50.0,46.4,87,29.83,5.0,ENE,5.8,-,N/A,,Overcast,70,2013-01-11 03:15:00
9:35 PM,48.2,46.4,93,29.82,0.8,Calm,Calm,-,N/A,,Overcast,0,2013-01-11 03:35:00
9:55 PM,48.2,46.4,93,29.82,0.8,SSE,3.5,-,N/A,,Overcast,160,2013-01-11 03:55:00
10:15 PM,48.2,46.4,93,29.83,0.5,South,5.8,-,N/A,,Overcast,180,2013-01-11 04:15:00
10:35 PM,48.2,46.4,93,29.82,2.0,SSE,5.8,-,N/A,,Mostly Cloudy,150,2013-01-11 04:35:00
10:55 PM,50.0,46.4,87,29.83,10.0,South,8.1,-,N/A,,Mostly Cloudy,180,2013-01-11 04:55:00
11:15 PM,48.2,46.4,93,29.82,10.0,South,9.2,-,N/A,,Mostly Cloudy,170,2013-01-11 05:15:00
11:55 PM,48.2,46.4,93,29.82,10.0,South,5.8,-,N/A,,Clear,180,2013-01-11 05:55:00